Flag for Germany Weather past 2 weeks in Trier, Rhineland-Palatinate, Germany

Now
41 °F

Light rain. Overcast.


Feels Like: 38 °F
Forecast: 27 / 42 °F
Wind: 5 mph from North

Location: Trier-Petrisberg

Current Time: Feb 27, 2015 at 3:05:56 PM

Latest Report: Feb 27, 2015 at 2:00 PM


Visibility: 15 mi

Pressure: 30.01 "Hg

Humidity: 74%

Dew point: 33 °F

Location of TrierLocation

Historic Weather in Trier — Graph

°F

Trier temperature yesterday

Maximum temperature yesterday: 46 °F (at 2:00 PM)
Minimum temperature yesterday: 39 °F (at 12:00 AM)
Average temperature yesterday: 42 °F

Past Weeks' High & Low Weather Summary

 TemperatureHumidityPressure
High51 °F (Feb 20, 3:00 PM)100% (Feb 12, 2:00 PM)30.76 "Hg (Feb 12, 2:00 PM)
Low27 °F (Feb 13, 9:00 AM)57% (Feb 20, 4:00 PM)29.44 "Hg (Feb 21, 5:00 AM)
Average37 °F88%30.03 "Hg
* Reported Feb 12 2:00 PM — Feb 27 2:00 PM, Trier, Weather by CustomWeather, © 2015

Note: Actual official high and low records may vary slightly from our data, if they occured in-between our weather recording intervals... More about our weather records

Advertising

Trier weather history for previous 24 hours

 ConditionsComfort  
Time TempWeatherWind HumidityBarometerVisibility
2:00 PM
Fri, Feb 27
41 °FLight rain. Overcast.5 mph74%30.01 "Hg15 mi
1:00 PM42 °FOvercast.3 mph75%29.99 "Hg17 mi
12:00 PM41 °FOvercast.3 mph79%29.97 "Hg16 mi
11:00 AM40 °FOvercast.5 mph83%29.94 "Hg22 mi
10:00 AM40 °FLight rain. Overcast.2 mph91%29.92 "Hg19 mi
9:00 AM38 °FLight rain. Overcast.3 mph94%29.90 "Hg19 mi
8:00 AM37 °FLight rain. Overcast.3 mph94%29.87 "Hg12 mi
7:00 AM39 °FRain. Overcast.5 mph93%29.83 "Hg9 mi
6:00 AM40 °FRain. Low clouds.2 mph100%29.80 "Hg4 mi
5:00 AM40 °FRain. Low clouds.2 mph100%29.79 "Hg1 mi
4:00 AM40 °FRain. Low clouds.2 mph100%29.79 "Hg1 mi
3:00 AM41 °FRain. Low clouds.1 mph100%29.80 "Hg0 mi
2:00 AM41 °FRain. Low clouds.1 mph100%29.81 "Hg0 mi
1:00 AM41 °FLight freezing rain. Low clouds.3 mph99%29.83 "Hg1 mi
12:00 AM41 °FLight freezing rain. Overcast.3 mph95%29.85 "Hg3 mi
11:00 PM
Thu, Feb 26
41 °FOvercast.5 mph93%29.88 "Hg14 mi
10:00 PM42 °FDrizzle. Overcast.7 mph93%29.91 "Hg5 mi
9:00 PM43 °FRain. Overcast.5 mph88%29.92 "Hg6 mi
8:00 PM43 °FLight rain. Overcast.5 mph83%29.95 "Hg11 mi
7:00 PM44 °FOvercast.6 mph80%29.97 "Hg25 mi
6:00 PM44 °FOvercast.6 mph78%29.98 "Hg31 mi
5:00 PM45 °FOvercast.6 mph77%30.00 "Hg34 mi
4:00 PM45 °FOvercast.6 mph79%30.01 "Hg25 mi
3:00 PM46 °FOvercast.6 mph78%30.03 "Hg25 mi
Weather by CustomWeather, © 2015

See weather overviewHow to use our weather pages